Weather History for CZHY - September, 2013

Change the Weather History Date:

Saturday, September 7, 2013

  Actual Average Record
Temperature  
Mean Temperature 70 °F -  
Max Temperature 83 °F - - ()
Min Temperature 58 °F - - ()
Cooling Degree Days 6    
Growing Degree Days 20 (Base 50)    
Moisture  
Dew Point 49 °F    
Average Humidity 48    
Maximum Humidity 68    
Minimum Humidity 22    
Precipitation  
Precipitation 0.00 in - - ()
Sea Level Pressure  
Sea Level Pressure 29.87 in    
Wind  
Wind Speed 9 mph ()    
Max Wind Speed 16 mph    
Max Gust Speed 25 mph    
T = Trace of Precipitation, MM = Missing Value Source: Averaged Metar Reports

Daily Weather History Graph

Daily Weather History Graph

Search for Another Location

Airport or City:

Trip Planner

Search our weather history database for the weather conditions in past years. The results will help you decide how hot, cold, wet, or windy it might be!

Date:

Astronomy

Sep. 07, 2013 Rise Set
Actual Time 6:51 AM MDT 8:28 PM MDT
Civil Twilight 6:06 AM MDT 9:13 PM MDT
Nautical Twilight 5:09 AM MDT 10:10 PM MDT
Astronomical Twilight 3:59 AM MDT 11:18 PM MDT
Moon 10:03 AM MDT (9/7) 8:31 PM MDT (9/7)
Length of Visible Light 15h 06m
Length of Day
13h 37m
Waxing Crescent, 5% of the Moon is Illuminated
Sep 7
Waxing Crescent
Sep 12
First Quarter
Sep 19
Full
Sep 26
Last Quarter
Oct 4
New

Hourly Weather History & Observations

Time (MDT) Temp. Dew Point Humidity Pressure Visibility Wind Dir Wind Speed Gust Speed Precip Events Conditions
12:00 AM 59 °F 42 °F 43% 30.08 in - South 8.1 mph - -  
12:00 AM 59.4 °F 42.4 °F 54% 30.08 in - South 8.1 mph - N/A   Unknown
1:00 AM 59.4 °F 46.0 °F 61% 30.07 in - SSW 9.2 mph - N/A   Unknown
2:00 AM 60.8 °F 48.6 °F 64% 30.06 in - SSW 9.2 mph - N/A   Unknown
3:00 AM 61.7 °F 47.8 °F 60% 30.05 in - SSW 10.4 mph - N/A   Unknown
4:00 AM 62.8 °F 47.1 °F 57% 30.02 in - SSW 11.5 mph - N/A   Unknown
5:00 AM 60.8 °F 47.3 °F 61% 30.01 in - SW 9.2 mph - N/A   Unknown
6:00 AM 60 °F 47 °F 51% 29.99 in - SW 10.4 mph - -  
6:00 AM 60.4 °F 46.6 °F 60% 29.99 in - SW 10.4 mph - N/A   Unknown
7:00 AM 58.6 °F 47.5 °F 66% 29.96 in - SSW 9.2 mph - N/A   Unknown
8:00 AM 58.6 °F 48.0 °F 68% 29.94 in - SSW 10.4 mph - N/A   Unknown
9:00 AM 61.9 °F 49.1 °F 63% 29.92 in - SW 12.7 mph - N/A   Unknown
10:00 AM 66.2 °F 49.8 °F 55% 29.90 in - SW 12.7 mph - N/A   Unknown
11:00 AM 70.5 °F 51.4 °F 51% 29.88 in - SSW 11.5 mph - N/A   Unknown
12:00 PM 75.0 °F 52.3 °F 45% 29.86 in - SSW 11.5 mph - N/A   Unknown
1:00 PM 77.5 °F 52.5 °F 42% 29.83 in - SW 12.7 mph 20.7 mph N/A   Unknown
2:00 PM 79.7 °F 52.7 °F 39% 29.80 in - SSW 13.8 mph - N/A   Unknown
3:00 PM 82.0 °F 50.5 °F 33% 29.76 in - SW 16.1 mph 25.3 mph N/A   Unknown
4:00 PM 83.1 °F 50.2 °F 32% 29.74 in - SW 16.1 mph 24.2 mph N/A   Unknown
5:00 PM 83.1 °F 49.6 °F 31% 29.72 in - WSW 15.0 mph 24.2 mph N/A   Unknown
6:00 PM 83 °F 51 °F 22% 29.70 in - SW 12.7 mph - -  
6:00 PM 82.6 °F 50.5 °F 33% 29.70 in - SW 12.7 mph 24.2 mph N/A   Unknown
7:00 PM 81.7 °F 50.5 °F 34% 29.70 in - SW 11.5 mph 23.0 mph N/A   Unknown
8:00 PM 78.6 °F 51.4 °F 39% 29.69 in - SW 10.4 mph - N/A   Unknown
9:00 PM 75.4 °F 52.7 °F 45% 29.69 in - SW 8.1 mph - N/A   Unknown
10:00 PM 73.8 °F 52.3 °F 47% 29.68 in - SW 8.1 mph - N/A   Unknown
11:00 PM 72.0 °F 51.8 °F 49% 29.68 in - SW 6.9 mph - N/A   Unknown